Simultaneous Nadir Overpasses (SNOs) Predictions

Prediction of SNOs between GOES-15 and METOP-A Satellite Orbit:

Table of predicted SNOs for the next 14.0 days since TLE Epoch: 7/19/2019
Index Date Time (GOES-15) GOES-15 Lat,Lon METOP-A Lat,Lon Distance(km) Time Diff (sec)
1 07/20/2019 17:37:30 -0.11,-127.97 -0.03,-128.25 32.32 80
2 07/23/2019 05:33:13 0.11,-128.02 0.15,-127.90 14.26 80
3 07/25/2019 17:31:26 -0.10,-128.11 -0.23,-127.50 69.28 80
4 07/27/2019 05:53:07 0.07,-128.13 -0.80,-132.13 454.79 80
5 07/28/2019 05:29:48 0.09,-128.15 0.29,-127.14 114.35 80
6 07/29/2019 17:51:20 -0.06,-128.19 0.71,-131.73 402.45 80
7 07/30/2019 17:28:01 -0.09,-128.21 -0.43,-126.75 166.53 80
8 08/01/2019 05:49:42 0.05,-128.22 -0.65,-131.37 358.63 80
9 08/02/2019 05:26:23 0.08,-128.23 0.49,-126.39 209.58 80




NCC Satellite Simultaneous Nadir Overpasses (SNOs) Prediction Service
